FW3899 Weather Reports


Display with metric or nautical units.
time (UTC)temp
F
wind
direction
speed
MPH
gust
MPH
rain 1hr
in
rain 24hr
in
rain mn
in
humidity
%
barometer
mb
20200601041659 47 243 0.0 0.0 0.00 0.00 0.00 80 1017.6
20200601040151 46 265 0.0 0.0 0.00 0.00 0.00 79 1017.7
20200601034753 47 16 0.0 0.0 0.00 0.00 0.00 75 1017.5
20200601033211 48 125 0.0 0.0 0.00 0.00 0.00 75 1017.5
20200601031543 47 150 0.0 0.0 0.00 0.00 0.00 76 1017.4
20200601030130 47 68 0.0 0.0 0.00 0.00 0.00 76 1017.4
20200601024621 47 213 0.0 0.0 0.00 0.00 0.00 76 1017.7
20200601023113 46 213 0.0 0.0 0.00 0.00 0.00 76 1017.6
20200601021633 47 286 0.0 0.0 0.00 0.00 0.00 76 1017.5
20200601020115 49 16 0.0 0.0 0.00 0.00 0.00 71 1017.5
20200601014548 52 24 0.0 2.0 0.00 0.00 0.00 65 1017.5
20200601013114 53 35 2.0 7.0 0.00 0.00 0.00 63 1017.5
20200601011544 53 67 0.0 8.0 0.00 0.00 0.00 62 1017.5
20200601010048 53 38 3.0 8.0 0.00 0.00 0.00 62 1017.4
20200601004621 53 55 2.0 7.0 0.00 0.00 0.00 63 1017.4
20200601003101 54 70 1.0 4.0 0.00 0.00 0.00 61 1017.6
20200601001551 54 66 1.0 8.0 0.00 0.00 0.00 62 1017.5
20200601000024 53 77 3.0 9.0 0.00 0.00 0.00 62 1017.5
20200531234541 52 27 2.0 5.0 0.00 0.00 0.00 65 1017.6
20200531233023 52 155 0.0 0.0 0.00 0.00 0.00 66 1017.6
20200531231525 52 54 0.0 3.0 0.00 0.00 0.00 64 1017.6
20200531230120 52 22 0.0 2.0 0.00 0.00 0.00 65 1017.8
20200531224519 52 270 0.0 0.0 0.00 0.00 0.00 64 1017.8
20200531223015 52 94 1.0 4.0 0.00 0.00 0.00 64 1017.8
20200531221533 53 290 0.0 1.0 0.00 0.00 0.00 64 1017.8
20200531220014 52 67 0.0 3.0 0.00 0.00 0.00 64 1017.9
20200531214517 54 135 0.0 3.0 0.00 0.00 0.00 62 1018.0
20200531213010 54 91 0.0 8.0 0.00 0.00 0.00 60 1018.0
20200531211520 54 60 0.0 2.0 0.00 0.00 0.00 61 1018.1
20200531210007 55 318 0.0 3.0 0.00 0.00 0.00 59 1018.1
20200531204523 56 42 0.0 4.0 0.00 0.00 0.00 56 1018.0
20200531203004 57 25 1.0 4.0 0.00 0.00 0.00 55 1018.1
20200531201501 57 42 2.0 7.0 0.00 0.00 0.00 55 1018.0
20200531200122 57 47 0.0 6.0 0.00 0.00 0.00 54 1017.9
20200531194714 58 76 1.0 5.0 0.00 0.00 0.00 53 1017.8
20200531193126 59 48 2.0 9.0 0.00 0.00 0.00 52 1017.6
20200531191647 59 38 3.0 11.0 0.00 0.00 0.00 51 1017.6
20200531190208 60 30 2.0 13.0 0.00 0.00 0.00 50 1017.4
20200531184619 61 36 6.0 14.0 0.00 0.00 0.00 48 1017.3
20200531183122 61 30 3.0 13.0 0.00 0.00 0.00 48 1017.1
20200531181658 62 127 5.0 12.0 0.00 0.00 0.00 47 1017.0
20200531180252 63 25 3.0 11.0 0.00 0.00 0.00 46 1016.9
20200531174644 63 32 5.0 11.0 0.00 0.00 0.00 45 1016.9
20200531173132 64 27 3.0 8.0 0.00 0.00 0.00 45 1016.9
20200531171844 63 39 7.0 12.0 0.00 0.00 0.00 44 1016.8
20200531170111 64 58 6.0 14.0 0.00 0.00 0.00 45 1016.7
20200531164735 64 43 5.0 10.0 0.00 0.00 0.00 44 1016.7
20200531163143 65 67 3.0 14.0 0.00 0.00 0.00 46 1016.7
20200531161636 65 47 6.0 14.0 0.00 0.00 0.00 43 1016.7
20200531160133 66 66 7.0 12.0 0.00 0.00 0.00 44 1016.7
20200531154726 67 30 3.0 13.0 0.00 0.00 0.00 44 1016.7
20200531153112 66 41 5.0 14.0 0.00 0.00 0.00 44 1016.7
20200531151607 67 29 5.0 13.0 0.00 0.00 0.00 42 1016.7
20200531150145 67 353 4.0 14.0 0.00 0.00 0.00 46 1016.7
20200531144801 67 30 7.0 14.0 0.00 0.00 0.00 43 1016.6
20200531143102 67 34 4.0 11.0 0.00 0.00 0.00 45 1016.6
20200531141645 67 57 6.0 11.0 0.00 0.00 0.00 44 1016.5
20200531140123 66 37 4.0 12.0 0.00 0.00 0.00 44 1016.7
20200531134554 67 73 7.0 12.0 0.00 0.00 0.00 44 1016.7
20200531133208 66 63 4.0 12.0 0.00 0.00 0.00 41 1016.7
20200531131559 65 48 7.0 12.0 0.00 0.00 0.00 43 1016.7
20200531130101 65 24 5.0 16.0 0.00 0.00 0.00 48 1016.8
20200531124622 65 58 6.0 15.0 0.00 0.00 0.00 44 1016.7
20200531123047 65 81 7.0 15.0 0.00 0.00 0.00 44 1016.7
20200531121637 65 81 6.0 11.0 0.00 0.00 0.00 45 1016.8
20200531120056 65 39 3.0 13.0 0.00 0.00 0.00 45 1016.7
20200531114605 64 42 8.0 16.0 0.00 0.00 0.00 46 1016.8
20200531113056 63 84 7.0 13.0 0.00 0.00 0.00 46 1016.8
20200531111621 64 118 4.0 8.0 0.00 0.00 0.00 48 1016.9
20200531110105 63 68 3.0 11.0 0.00 0.00 0.00 50 1017.0
20200531104529 62 155 4.0 11.0 0.00 0.00 0.00 50 1017.0
20200531103049 63 41 9.0 13.0 0.00 0.00 0.00 52 1017.2
20200531101534 61 69 5.0 14.0 0.00 0.00 0.00 57 1017.3
20200531100037 61 75 4.0 15.0 0.00 0.00 0.00 56 1017.2
20200531094516 61 60 4.0 12.0 0.00 0.00 0.00 61 1017.3
20200531093042 60 45 6.0 12.0 0.00 0.00 0.00 63 1017.3
20200531091521 58 84 6.0 18.0 0.00 0.00 0.00 58 1017.3
20200531090006 59 64 5.0 10.0 0.00 0.00 0.00 61 1017.2
20200531084501 59 53 6.0 13.0 0.00 0.00 0.00 60 1017.2
20200531083146 59 10 5.0 10.0 0.00 0.00 0.00 63 1017.2
20200531081603 57 43 3.0 8.0 0.00 0.00 0.00 67 1017.1
20200531080157 57 51 3.0 12.0 0.00 0.00 0.00 65 1017.1
20200531074636 56 351 4.0 10.0 0.00 0.00 0.00 65 1017.1
20200531073132 56 62 4.0 9.0 0.00 0.00 0.00 66 1017.1
20200531071619 55 10 3.0 7.0 0.00 0.00 0.00 66 1017.0
20200531070047 55 41 4.0 8.0 0.00 0.00 0.00 67 1016.9
20200531064606 55 56 3.0 8.0 0.00 0.00 0.00 67 1016.9
20200531063038 53 47 2.0 7.0 0.00 0.00 0.00 72 1017.0
20200531061518 53 62 4.0 7.0 0.00 0.00 0.00 69 1017.0
20200531060021 53 97 1.0 7.0 0.00 0.00 0.00 69 1016.8
20200531054525 53 16 0.0 4.0 0.00 0.00 0.00 68 1016.8
20200531053010 53 34 0.0 4.0 0.00 0.00 0.00 68 1016.9
20200531050230 51 324 0.0 2.0 0.00 0.00 0.00 71 1016.9
20200531044748 51 331 0.0 2.0 0.00 0.00 0.00 70 1017.0
20200531043137 50 16 1.0 4.0 0.00 0.00 0.00 71 1016.9